Location: Alt?nova Orta
(36.9295°N, 30.7847°E)
Time: 15:35:41
(UTC+00:00)

Cosmos 2369 Rocket - Pass Details

Date: 17 February 2020
Orbit: 827 x 854 km, 71.0° (Epoch: 28 March)

Event Time Altitude Azimuth Distance (km) Brightness Sun altitude
Rises 03:09:30 0° 342° (NNW) 3,428 5.2 -19.5°
Reaches altitude 10° 03:12:01 10° 347° (NNW) 2,490 4.5 -19.0°
Maximum altitude 03:17:38 55° 65° (ENE) 1,021 2.9 -17.9°
Drops below altitude 10° 03:23:12 10° 143° (SE) 2,473 5.2 -16.8°
Sets 03:25:41 0° 147° (SSE) 3,403 5.9 -16.3°
